VKG121 LEPA-EKCH

Flight info

Callsign VKG121
Flight time 2h 36m
Altitude 34000
Route MEROS DCT LAPIT DCT CHELY DCT LUMAS DCT MAXIR DCT LUSOL DCT BODRU DCT OKTET DCT IRMAR/N0445F360 DCT KINES DCT VANAS DCT MOBLO DCT UBIMA DCT SOSAL DCT KORED DCT BERSU DCT DITON/N0443F350 DCT LOKTA DCT TEDGO DCT HAREM DCT LOHRE DCT BERXO DCT MAKEL N851 GESKA Z711 MONAK
Aircraft A321/M-SDE3FGHIRWY/LB1

Departure

Time 2026-04-24 11:33
Airport Palma de Mallorca Airport (LEPA)

Arrival

Time 2026-04-24 14:10
Airport Copenhagen Kastrup Airport (EKCH)
Time Latitude Longitude Altitude Speed Heading
2026-04-24 11:10 39.55071 2.73582 38 ft 0 kts 164°
2026-04-24 11:20 39.55074 2.73581 38 ft 0 kts 164°
2026-04-24 11:23 39.55082 2.73578 37 ft 3 kts 164°
2026-04-24 11:23 39.55101 2.73571 38 ft 3 kts 163°
2026-04-24 11:23 39.55119 2.73564 36 ft 3 kts 155°
2026-04-24 11:23 39.55135 2.73551 37 ft 3 kts 122°
2026-04-24 11:24 39.55141 2.73529 37 ft 3 kts 83°
2026-04-24 11:24 39.55136 2.73505 36 ft 3 kts 62°
2026-04-24 11:24 39.55130 2.73492 37 ft 2 kts 59°
2026-04-24 11:24 39.55120 2.73471 36 ft 3 kts 59°
2026-04-24 11:25 39.55114 2.73458 37 ft 0 kts 59°
2026-04-24 11:25 39.55114 2.73457 37 ft 0 kts 59°
2026-04-24 11:27 39.55124 2.73479 36 ft 8 kts 59°
2026-04-24 11:27 39.55172 2.73581 38 ft 14 kts 58°
2026-04-24 11:28 39.55178 2.73686 38 ft 11 kts 77°
2026-04-24 11:28 39.55170 2.73775 38 ft 9 kts 94°
2026-04-24 11:28 39.55177 2.73845 38 ft 7 kts 116°
2026-04-24 11:28 39.55116 2.73898 38 ft 17 kts 148°
2026-04-24 11:29 39.54984 2.74003 38 ft 26 kts 148°
2026-04-24 11:29 39.54861 2.74099 38 ft 16 kts 149°
2026-04-24 11:29 39.54769 2.74082 38 ft 15 kts 235°
2026-04-24 11:29 39.54712 2.73966 38 ft 19 kts 238°
2026-04-24 11:30 39.54635 2.73802 38 ft 21 kts 238°
2026-04-24 11:30 39.54558 2.73643 38 ft 20 kts 238°
2026-04-24 11:30 39.54487 2.73492 38 ft 19 kts 238°
2026-04-24 11:30 39.54421 2.73351 38 ft 18 kts 239°
2026-04-24 11:31 39.54359 2.73219 38 ft 16 kts 239°
2026-04-24 11:31 39.54302 2.73097 38 ft 15 kts 238°
2026-04-24 11:31 39.54240 2.73057 38 ft 10 kts 155°
2026-04-24 11:31 39.54213 2.73129 38 ft 9 kts 95°
2026-04-24 11:32 39.54212 2.73251 38 ft 18 kts 91°
2026-04-24 11:32 39.54228 2.73382 37 ft 11 kts 59°
2026-04-24 11:32 39.54248 2.73426 38 ft 13 kts 59°
2026-04-24 11:32 39.54423 2.73799 38 ft 82 kts 58°
2026-04-24 11:33 39.54825 2.74646 39 ft 136 kts 58°
2026-04-24 11:33 39.55392 2.75839 258 ft 157 kts 61°
2026-04-24 11:33 39.55957 2.77031 822 ft 157 kts 60°
2026-04-24 11:33 39.56524 2.78255 1416 ft 158 kts 62°
2026-04-24 11:34 39.57081 2.79503 1889 ft 165 kts 61°
2026-04-24 11:34 39.57673 2.80873 2224 ft 184 kts 62°
2026-04-24 11:34 39.58344 2.82387 2509 ft 202 kts 61°
2026-04-24 11:34 39.59063 2.83958 2919 ft 209 kts 61°
2026-04-24 11:35 39.59810 2.85581 3621 ft 209 kts 60°
2026-04-24 11:35 39.60575 2.87243 4123 ft 220 kts 60°
2026-04-24 11:35 39.61378 2.88997 4517 ft 235 kts 60°
2026-04-24 11:35 39.62220 2.90841 5219 ft 240 kts 60°
2026-04-24 11:36 39.63083 2.92782 5622 ft 259 kts 60°
2026-04-24 11:36 39.63993 2.94869 6149 ft 270 kts 60°
2026-04-24 11:36 39.64919 2.97011 6802 ft 275 kts 60°
2026-04-24 11:36 39.65863 2.99198 7438 ft 280 kts 60°
2026-04-24 11:37 39.66822 3.01422 8069 ft 285 kts 59°
2026-04-24 11:37 39.67799 3.03685 8711 ft 290 kts 59°
2026-04-24 11:37 39.68808 3.06021 9362 ft 295 kts 58°
2026-04-24 11:37 39.69803 3.08325 10026 ft 298 kts 58°
2026-04-24 11:38 39.70846 3.10742 10448 ft 311 kts 58°
2026-04-24 11:38 39.71945 3.13277 10579 ft 333 kts 58°
2026-04-24 11:38 39.73114 3.15966 10757 ft 351 kts 58°
2026-04-24 11:38 39.74327 3.18773 11265 ft 358 kts 58°
2026-04-24 11:39 39.75608 3.21549 11897 ft 358 kts 50°
2026-04-24 11:39 39.77208 3.24026 12550 ft 359 kts 46°
2026-04-24 11:39 39.78834 3.26498 13211 ft 361 kts 46°
2026-04-24 11:39 39.80468 3.28985 13863 ft 363 kts 46°
2026-04-24 11:40 39.82111 3.31489 14445 ft 365 kts 46°
2026-04-24 11:40 39.83765 3.34007 15021 ft 367 kts 46°
2026-04-24 11:40 39.85428 3.36540 15591 ft 369 kts 47°
2026-04-24 11:40 39.87102 3.39091 16136 ft 372 kts 47°
2026-04-24 11:41 39.88784 3.41662 16681 ft 374 kts 47°
2026-04-24 11:41 39.90475 3.44252 17226 ft 377 kts 47°
2026-04-24 11:41 39.92178 3.46860 17761 ft 379 kts 47°
2026-04-24 11:41 39.93894 3.49488 18293 ft 382 kts 48°
2026-04-24 11:42 39.95619 3.52129 18756 ft 384 kts 48°
2026-04-24 11:42 39.97359 3.54792 19188 ft 387 kts 48°
2026-04-24 11:42 39.99107 3.57473 19613 ft 389 kts 48°
2026-04-24 11:42 40.00866 3.60174 20030 ft 392 kts 48°
2026-04-24 11:43 40.02636 3.62897 20445 ft 395 kts 48°
2026-04-24 11:43 40.04417 3.65644 20847 ft 398 kts 48°
2026-04-24 11:43 40.06211 3.68414 21264 ft 401 kts 48°
2026-04-24 11:43 40.08016 3.71197 21680 ft 403 kts 47°
2026-04-24 11:44 40.09813 3.73961 22070 ft 406 kts 47°
2026-04-24 11:44 40.11668 3.76818 22485 ft 409 kts 47°
2026-04-24 11:44 40.13511 3.79662 22876 ft 411 kts 47°
2026-04-24 11:44 40.15360 3.82526 23285 ft 414 kts 47°
2026-04-24 11:45 40.17193 3.85372 23701 ft 416 kts 47°
2026-04-24 11:45 40.19060 3.88274 24029 ft 418 kts 47°
2026-04-24 11:45 40.20935 3.91191 24362 ft 420 kts 47°
2026-04-24 11:45 40.22821 3.94119 24697 ft 422 kts 47°
2026-04-24 11:46 40.24718 3.97064 25034 ft 424 kts 47°
2026-04-24 11:46 40.26623 4.00019 25355 ft 426 kts 47°
2026-04-24 11:46 40.28537 4.02992 25689 ft 428 kts 47°
2026-04-24 11:46 40.30456 4.05982 25981 ft 430 kts 47°
2026-04-24 11:47 40.32376 4.08982 26291 ft 432 kts 47°
2026-04-24 11:47 40.34340 4.12057 26605 ft 434 kts 47°
2026-04-24 11:47 40.36257 4.15060 26906 ft 436 kts 47°
2026-04-24 11:47 40.38232 4.18155 27213 ft 438 kts 47°
2026-04-24 11:48 40.40190 4.21228 27550 ft 440 kts 47°
2026-04-24 11:48 40.42153 4.24311 27868 ft 441 kts 47°
2026-04-24 11:48 40.44120 4.27403 28169 ft 442 kts 47°
2026-04-24 11:48 40.46105 4.30497 28441 ft 443 kts 45°
2026-04-24 11:49 40.48328 4.33279 28707 ft 441 kts 35°
2026-04-24 11:49 40.50864 4.35530 28970 ft 439 kts 26°
2026-04-24 11:49 40.53635 4.37189 29221 ft 438 kts 17°
2026-04-24 11:49 40.56572 4.38231 29475 ft 437 kts
2026-04-24 11:50 40.59527 4.38932 29741 ft 438 kts
2026-04-24 11:50 40.62578 4.39657 29997 ft 440 kts
2026-04-24 11:50 40.65599 4.40378 30265 ft 442 kts
2026-04-24 11:50 40.68617 4.41101 30581 ft 441 kts
2026-04-24 11:51 40.71626 4.41822 30902 ft 440 kts
2026-04-24 11:51 40.74634 4.42542 31219 ft 439 kts
2026-04-24 11:51 40.77634 4.43265 31552 ft 438 kts
2026-04-24 11:51 40.80625 4.43990 31883 ft 437 kts
2026-04-24 11:52 40.83613 4.44712 32218 ft 436 kts
2026-04-24 11:52 40.86591 4.45429 32561 ft 434 kts
2026-04-24 11:52 40.89560 4.46144 32902 ft 433 kts
2026-04-24 11:52 40.92520 4.46857 33237 ft 432 kts
2026-04-24 11:53 40.95476 4.47573 33554 ft 431 kts
2026-04-24 11:53 40.97427 4.48046 33774 ft 431 kts
2026-04-24 11:53 41.00374 4.48761 34088 ft 430 kts
2026-04-24 11:53 41.03310 4.49474 34172 ft 427 kts
2026-04-24 11:54 41.09117 4.50885 34180 ft 423 kts
2026-04-24 11:54 41.14896 4.52294 34179 ft 422 kts
2026-04-24 11:55 41.20666 4.53706 34179 ft 422 kts
2026-04-24 11:55 41.26438 4.55117 34185 ft 422 kts
2026-04-24 11:56 41.32212 4.56534 34187 ft 422 kts
2026-04-24 11:56 41.37985 4.57943 34206 ft 422 kts
2026-04-24 11:57 41.43750 4.59348 34205 ft 421 kts
2026-04-24 11:57 41.49499 4.60769 34204 ft 420 kts
2026-04-24 11:58 41.55233 4.62187 34195 ft 419 kts
2026-04-24 11:58 41.60926 4.63596 34195 ft 419 kts
2026-04-24 11:59 41.66657 4.65009 34187 ft 419 kts
2026-04-24 11:59 41.72355 4.66607 34191 ft 420 kts 16°
2026-04-24 12:00 41.77600 4.70085 34190 ft 423 kts 28°
2026-04-24 12:00 41.82654 4.74148 34196 ft 423 kts 28°
2026-04-24 12:01 41.87708 4.78210 34195 ft 424 kts 28°
2026-04-24 12:01 41.92761 4.82284 34190 ft 424 kts 28°
2026-04-24 12:02 41.97815 4.86368 34200 ft 424 kts 28°
2026-04-24 12:02 42.02867 4.90451 34197 ft 424 kts 28°
2026-04-24 12:03 42.07914 4.94539 34196 ft 424 kts 28°
2026-04-24 12:03 42.12961 4.98637 34200 ft 423 kts 29°
2026-04-24 12:04 42.18001 5.02730 34199 ft 423 kts 29°
2026-04-24 12:04 42.23036 5.06833 34200 ft 423 kts 29°
2026-04-24 12:05 42.28063 5.10946 34195 ft 422 kts 29°
2026-04-24 12:05 42.33088 5.15064 34185 ft 423 kts 30°
2026-04-24 12:06 42.38125 5.19195 34180 ft 424 kts 30°
2026-04-24 12:06 42.43169 5.23329 34180 ft 424 kts 30°
2026-04-24 12:07 42.48380 5.27037 34180 ft 423 kts 24°
2026-04-24 12:07 42.53745 5.30345 34169 ft 424 kts 24°
2026-04-24 12:08 42.59136 5.33631 34183 ft 425 kts 24°
2026-04-24 12:08 42.64542 5.36948 34172 ft 427 kts 25°
2026-04-24 12:09 42.69968 5.40291 34165 ft 429 kts 25°
2026-04-24 12:09 42.75400 5.43655 34168 ft 429 kts 25°
2026-04-24 12:10 42.80833 5.47026 34168 ft 430 kts 25°
2026-04-24 12:11 42.88996 5.52108 34173 ft 430 kts 25°
2026-04-24 12:11 42.94444 5.55500 34162 ft 431 kts 25°
2026-04-24 12:12 42.99901 5.58906 34161 ft 432 kts 25°
2026-04-24 12:12 43.05366 5.62320 34164 ft 432 kts 25°
2026-04-24 12:13 43.10838 5.65744 34162 ft 432 kts 25°
2026-04-24 12:13 43.16313 5.69173 34162 ft 433 kts 25°
2026-04-24 12:14 43.21793 5.72614 34156 ft 434 kts 26°
2026-04-24 12:14 43.27281 5.76083 34158 ft 434 kts 26°
2026-04-24 12:15 43.32774 5.79559 34130 ft 436 kts 27°
2026-04-24 12:15 43.38288 5.83045 34124 ft 437 kts 27°
2026-04-24 12:16 43.43820 5.86552 34126 ft 438 kts 27°
2026-04-24 12:16 43.49356 5.90072 34122 ft 439 kts 27°
2026-04-24 12:17 43.54900 5.93598 34115 ft 439 kts 27°
2026-04-24 12:17 43.60455 5.97144 34112 ft 440 kts 27°
2026-04-24 12:18 43.66014 6.00701 34110 ft 441 kts 27°
2026-04-24 12:18 43.71586 6.04273 34113 ft 441 kts 27°
2026-04-24 12:19 43.77149 6.07859 34121 ft 442 kts 27°
2026-04-24 12:19 43.82686 6.11536 34133 ft 441 kts 28°
2026-04-24 12:20 43.88176 6.15308 34135 ft 440 kts 28°
2026-04-24 12:20 43.93663 6.19096 34137 ft 440 kts 28°
2026-04-24 12:21 43.99148 6.22858 34141 ft 440 kts 28°
2026-04-24 12:21 44.04636 6.26620 34137 ft 440 kts 28°
2026-04-24 12:22 44.10125 6.30386 34118 ft 440 kts 28°
2026-04-24 12:22 44.15622 6.34163 34122 ft 441 kts 28°
2026-04-24 12:23 44.21118 6.37950 34123 ft 441 kts 28°
2026-04-24 12:23 44.26628 6.41753 34128 ft 442 kts 28°
2026-04-24 12:24 44.32133 6.45561 34123 ft 442 kts 28°
2026-04-24 12:24 44.37644 6.49374 34159 ft 441 kts 28°
2026-04-24 12:25 44.43135 6.53197 34147 ft 440 kts 28°
2026-04-24 12:25 44.48616 6.57018 34148 ft 440 kts 28°
2026-04-24 12:26 44.54084 6.60841 34147 ft 440 kts 28°
2026-04-24 12:26 44.59561 6.64667 34129 ft 440 kts 28°
2026-04-24 12:27 44.65033 6.68501 34148 ft 439 kts 28°
2026-04-24 12:27 44.70500 6.72345 34142 ft 440 kts 28°
2026-04-24 12:28 44.75968 6.76198 34124 ft 440 kts 27°
2026-04-24 12:28 44.81850 6.78579 34112 ft 444 kts
2026-04-24 12:29 44.88050 6.78509 34113 ft 447 kts 359°
2026-04-24 12:29 44.94265 6.78101 34115 ft 447 kts 359°
2026-04-24 12:30 45.00489 6.77697 34123 ft 448 kts 359°
2026-04-24 12:30 45.06710 6.77281 34129 ft 448 kts 359°
2026-04-24 12:31 45.12951 6.76865 34135 ft 448 kts 359°
2026-04-24 12:31 45.19187 6.76457 34146 ft 449 kts 359°
2026-04-24 12:32 45.25425 6.76042 34146 ft 449 kts 359°
2026-04-24 12:32 45.31674 6.75621 34150 ft 450 kts 359°
2026-04-24 12:33 45.37913 6.75212 34157 ft 449 kts 359°
2026-04-24 12:33 45.44164 6.74801 34158 ft 449 kts 359°
2026-04-24 12:34 45.50412 6.74381 34163 ft 450 kts 359°
2026-04-24 12:34 45.56661 6.73943 34176 ft 450 kts 359°
2026-04-24 12:35 45.62919 6.73494 34169 ft 450 kts 358°
2026-04-24 12:35 45.69136 6.73062 34172 ft 450 kts 359°
2026-04-24 12:36 45.74375 6.72719 34165 ft 450 kts 359°
2026-04-24 12:36 45.80628 6.72298 34164 ft 449 kts 358°
2026-04-24 12:37 45.86884 6.71872 34168 ft 450 kts 358°
2026-04-24 12:37 45.93143 6.71437 34164 ft 451 kts 358°
2026-04-24 12:38 45.99419 6.71007 34168 ft 452 kts 358°
2026-04-24 12:38 46.05711 6.70581 34165 ft 453 kts 358°
2026-04-24 12:39 46.15112 6.71164 34163 ft 451 kts 15°
2026-04-24 12:39 46.18121 6.72409 34170 ft 451 kts 18°
2026-04-24 12:40 46.24143 6.74964 34179 ft 451 kts 18°
2026-04-24 12:40 46.30166 6.77506 34176 ft 451 kts 18°
2026-04-24 12:41 46.36195 6.80061 34184 ft 451 kts 18°
2026-04-24 12:41 46.42223 6.82635 34191 ft 451 kts 18°
2026-04-24 12:42 46.48250 6.85209 34198 ft 452 kts 18°
2026-04-24 12:42 46.54081 6.88450 34201 ft 447 kts 31°
2026-04-24 12:43 46.58893 6.94026 34208 ft 442 kts 50°
2026-04-24 12:43 46.62749 7.00951 34202 ft 440 kts 53°
2026-04-24 12:44 46.66599 7.07880 34196 ft 440 kts 52°
2026-04-24 12:44 46.70447 7.14817 34195 ft 440 kts 52°
2026-04-24 12:45 46.74287 7.21758 34196 ft 440 kts 53°
2026-04-24 12:45 46.78120 7.28724 34169 ft 440 kts 53°
2026-04-24 12:46 46.81947 7.35712 34159 ft 441 kts 52°
2026-04-24 12:46 46.85767 7.42700 34170 ft 440 kts 53°
2026-04-24 12:47 46.89571 7.49677 34175 ft 439 kts 53°
2026-04-24 12:47 46.93366 7.56662 34194 ft 438 kts 53°
2026-04-24 12:48 46.97146 7.63643 34198 ft 438 kts 53°
2026-04-24 12:48 47.00922 7.70627 34196 ft 437 kts 53°
2026-04-24 12:49 47.04693 7.77613 34191 ft 437 kts 53°
2026-04-24 12:49 47.08459 7.84601 34189 ft 437 kts 53°
2026-04-24 12:50 47.12220 7.91606 34187 ft 437 kts 53°
2026-04-24 12:50 47.15624 7.98957 34183 ft 435 kts 59°
2026-04-24 12:51 47.18838 8.06506 34182 ft 435 kts 59°
2026-04-24 12:51 47.22056 8.14048 34181 ft 435 kts 59°
2026-04-24 12:52 47.25267 8.21603 34178 ft 435 kts 59°
2026-04-24 12:52 47.28530 8.29258 34183 ft 436 kts 56°
2026-04-24 12:53 47.32657 8.35600 34184 ft 437 kts 37°
2026-04-24 12:53 47.37758 8.40579 34185 ft 437 kts 34°
2026-04-24 12:54 47.42842 8.45501 34198 ft 437 kts 34°
2026-04-24 12:54 47.47920 8.50436 34199 ft 437 kts 34°
2026-04-24 12:55 47.53000 8.55374 34194 ft 437 kts 34°
2026-04-24 12:55 47.58083 8.60320 34189 ft 437 kts 34°
2026-04-24 12:56 47.63163 8.65287 34182 ft 438 kts 34°
2026-04-24 12:56 47.68242 8.70266 34178 ft 438 kts 34°
2026-04-24 12:57 47.73326 8.75248 34161 ft 438 kts 34°
2026-04-24 12:57 47.78413 8.80241 34154 ft 438 kts 34°
2026-04-24 12:58 47.83497 8.85259 34155 ft 439 kts 34°
2026-04-24 12:58 47.88587 8.90300 34160 ft 439 kts 34°
2026-04-24 12:59 47.93677 8.95335 34167 ft 439 kts 34°
2026-04-24 12:59 47.98758 9.00370 34174 ft 438 kts 34°
2026-04-24 13:00 48.03824 9.05415 34176 ft 437 kts 34°
2026-04-24 13:00 48.08885 9.10471 34176 ft 437 kts 34°
2026-04-24 13:01 48.13971 9.15469 34173 ft 438 kts 29°
2026-04-24 13:01 48.19649 9.18672 34163 ft 438 kts 11°
2026-04-24 13:02 48.25698 9.19779 34164 ft 438 kts
2026-04-24 13:02 48.31763 9.20800 34167 ft 439 kts
2026-04-24 13:03 48.37828 9.21826 34162 ft 439 kts
2026-04-24 13:03 48.43893 9.22851 34162 ft 438 kts
2026-04-24 13:04 48.49957 9.23884 34169 ft 439 kts
2026-04-24 13:04 48.56023 9.24920 34157 ft 439 kts
2026-04-24 13:05 48.62098 9.25951 34152 ft 439 kts
2026-04-24 13:05 48.68159 9.26913 34152 ft 439 kts
2026-04-24 13:06 48.74236 9.27824 34160 ft 439 kts
2026-04-24 13:06 48.80314 9.28733 34156 ft 439 kts
2026-04-24 13:07 48.86397 9.29660 34158 ft 439 kts
2026-04-24 13:07 48.92488 9.30601 34188 ft 443 kts
2026-04-24 13:07 48.95564 9.31076 34331 ft 446 kts
2026-04-24 13:08 48.98657 9.31555 34544 ft 448 kts
2026-04-24 13:08 49.01762 9.32036 34805 ft 448 kts
2026-04-24 13:08 49.04865 9.32518 35085 ft 448 kts
2026-04-24 13:09 49.11066 9.33481 35630 ft 447 kts
2026-04-24 13:09 49.14159 9.33963 35898 ft 447 kts
2026-04-24 13:09 49.17255 9.34444 36157 ft 447 kts
2026-04-24 13:09 49.20341 9.34922 36430 ft 446 kts
2026-04-24 13:10 49.23427 9.35405 36688 ft 446 kts
2026-04-24 13:10 49.26513 9.35888 36939 ft 445 kts
2026-04-24 13:10 49.29594 9.36372 37138 ft 446 kts
2026-04-24 13:10 49.32692 9.36857 37188 ft 448 kts
2026-04-24 13:11 49.38895 9.37823 37186 ft 448 kts
2026-04-24 13:11 49.45098 9.38798 37184 ft 448 kts
2026-04-24 13:12 49.51305 9.39780 37185 ft 448 kts
2026-04-24 13:12 49.57509 9.40753 37186 ft 448 kts
2026-04-24 13:13 49.63719 9.41737 37192 ft 449 kts
2026-04-24 13:13 49.69935 9.42732 37198 ft 449 kts
2026-04-24 13:14 49.76156 9.43726 37200 ft 449 kts
2026-04-24 13:14 49.81364 9.44557 37213 ft 449 kts
2026-04-24 13:15 49.87541 9.45540 37210 ft 449 kts
2026-04-24 13:15 49.93764 9.46541 37206 ft 449 kts
2026-04-24 13:16 49.99980 9.47548 37206 ft 449 kts
2026-04-24 13:16 50.06192 9.48564 37211 ft 450 kts
2026-04-24 13:17 50.12347 9.50513 37207 ft 451 kts
2026-04-24 13:17 50.18484 9.52573 37203 ft 451 kts
2026-04-24 13:18 50.24622 9.54627 37204 ft 451 kts
2026-04-24 13:18 50.30764 9.56686 37211 ft 451 kts
2026-04-24 13:19 50.36898 9.58758 37208 ft 451 kts
2026-04-24 13:19 50.43038 9.60834 37212 ft 451 kts
2026-04-24 13:20 50.49174 9.62907 37236 ft 451 kts
2026-04-24 13:20 50.55313 9.64996 37228 ft 451 kts
2026-04-24 13:21 50.61448 9.67090 37226 ft 451 kts
2026-04-24 13:21 50.67622 9.69199 37211 ft 451 kts
2026-04-24 13:22 50.73757 9.71304 37219 ft 451 kts
2026-04-24 13:22 50.79897 9.73415 37229 ft 451 kts
2026-04-24 13:23 50.86034 9.75527 37222 ft 451 kts
2026-04-24 13:23 50.92170 9.77640 37229 ft 451 kts
2026-04-24 13:24 50.98263 9.79754 37230 ft 451 kts
2026-04-24 13:24 51.04439 9.81904 37227 ft 451 kts
2026-04-24 13:25 51.10572 9.84032 37230 ft 451 kts
2026-04-24 13:25 51.16706 9.86174 37237 ft 451 kts
2026-04-24 13:26 51.22830 9.88395 37223 ft 453 kts 13°
2026-04-24 13:26 51.28818 9.91658 37228 ft 455 kts 15°
2026-04-24 13:27 51.34805 9.94980 37230 ft 455 kts 15°
2026-04-24 13:27 51.40789 9.98302 37239 ft 455 kts 14°
2026-04-24 13:28 51.46778 10.01628 37229 ft 455 kts 14°
2026-04-24 13:28 51.52761 10.04959 37211 ft 455 kts 14°
2026-04-24 13:29 51.58748 10.08308 37215 ft 456 kts 14°
2026-04-24 13:29 51.64734 10.11658 37226 ft 456 kts 14°
2026-04-24 13:30 51.70723 10.15019 37220 ft 456 kts 14°
2026-04-24 13:30 51.76707 10.18386 37215 ft 456 kts 14°
2026-04-24 13:31 51.82690 10.21772 37215 ft 456 kts 14°
2026-04-24 13:31 51.88676 10.25157 37221 ft 456 kts 14°
2026-04-24 13:32 51.94660 10.28552 37210 ft 456 kts 14°
2026-04-24 13:32 52.00642 10.31966 37208 ft 456 kts 14°
2026-04-24 13:33 52.06628 10.35382 37214 ft 455 kts 14°
2026-04-24 13:33 52.12594 10.38794 37224 ft 454 kts 14°
2026-04-24 13:34 52.18547 10.42213 37222 ft 453 kts 14°
2026-04-24 13:34 52.24488 10.45637 37217 ft 453 kts 14°
2026-04-24 13:35 52.30416 10.49073 37226 ft 452 kts 14°
2026-04-24 13:35 52.36348 10.52518 37221 ft 452 kts 14°
2026-04-24 13:36 52.42271 10.55956 37217 ft 451 kts 14°
2026-04-24 13:36 52.48184 10.59398 37205 ft 451 kts 14°
2026-04-24 13:37 52.54098 10.62847 37221 ft 451 kts 14°
2026-04-24 13:37 52.59966 10.66282 37202 ft 450 kts 14°
2026-04-24 13:38 52.65861 10.69763 37193 ft 450 kts 14°
2026-04-24 13:38 52.71761 10.73237 37187 ft 450 kts 14°
2026-04-24 13:39 52.77656 10.76721 37189 ft 450 kts 14°
2026-04-24 13:39 52.83545 10.80207 37183 ft 450 kts 14°
2026-04-24 13:40 52.89424 10.83700 37176 ft 449 kts 14°
2026-04-24 13:40 52.95309 10.87205 37168 ft 449 kts 14°
2026-04-24 13:41 53.01190 10.90725 37170 ft 449 kts 14°
2026-04-24 13:41 53.07062 10.94244 37164 ft 449 kts 14°
2026-04-24 13:42 53.12933 10.97772 37160 ft 449 kts 14°
2026-04-24 13:42 53.18806 11.01321 37161 ft 449 kts 14°
2026-04-24 13:43 53.24676 11.04886 37178 ft 449 kts 14°
2026-04-24 13:43 53.30538 11.08452 37171 ft 448 kts 14°
2026-04-24 13:44 53.36394 11.12009 37165 ft 447 kts 14°
2026-04-24 13:44 53.42238 11.15569 37162 ft 447 kts 14°
2026-04-24 13:45 53.48079 11.19140 37178 ft 447 kts 14°
2026-04-24 13:45 53.53910 11.22721 37161 ft 446 kts 14°
2026-04-24 13:46 53.59733 11.26310 37150 ft 445 kts 14°
2026-04-24 13:46 53.65547 11.29892 37144 ft 445 kts 14°
2026-04-24 13:47 53.71353 11.33486 37158 ft 444 kts 14°
2026-04-24 13:47 53.77155 11.37087 37150 ft 444 kts 14°
2026-04-24 13:48 53.82948 11.40701 37140 ft 443 kts 14°
2026-04-24 13:48 53.88735 11.44313 37136 ft 443 kts 14°
2026-04-24 13:49 53.94519 11.47937 37127 ft 443 kts 14°
2026-04-24 13:49 54.00297 11.51580 36471 ft 443 kts 14°
2026-04-24 13:50 54.03176 11.53396 35814 ft 443 kts 14°
2026-04-24 13:50 54.06080 11.55225 35150 ft 445 kts 14°
2026-04-24 13:50 54.08986 11.57055 34492 ft 446 kts 14°
2026-04-24 13:50 54.11899 11.58897 33793 ft 448 kts 14°
2026-04-24 13:51 54.14820 11.60752 33030 ft 449 kts 14°
2026-04-24 13:51 54.17755 11.62617 32317 ft 450 kts 14°
2026-04-24 13:51 54.20673 11.64475 31832 ft 445 kts 14°
2026-04-24 13:51 54.23559 11.66316 31347 ft 441 kts 14°
2026-04-24 13:52 54.25457 11.67529 31012 ft 438 kts 14°
2026-04-24 13:52 54.29248 11.69957 30343 ft 433 kts 14°
2026-04-24 13:52 54.32053 11.71755 29784 ft 429 kts 14°
2026-04-24 13:52 54.34840 11.73541 29113 ft 427 kts 14°
2026-04-24 13:53 54.37633 11.75326 28266 ft 429 kts 14°
2026-04-24 13:53 54.40427 11.77116 27641 ft 427 kts 14°
2026-04-24 13:53 54.43196 11.78894 27069 ft 424 kts 14°
2026-04-24 13:53 54.45938 11.80691 26549 ft 420 kts 15°
2026-04-24 13:54 54.48627 11.82646 26008 ft 418 kts 18°
2026-04-24 13:54 54.51261 11.84719 25486 ft 415 kts 19°
2026-04-24 13:54 54.53860 11.86845 24971 ft 412 kts 19°
2026-04-24 13:54 54.56434 11.88971 24449 ft 408 kts 19°
2026-04-24 13:55 54.58987 11.91059 23946 ft 404 kts 19°
2026-04-24 13:55 54.60668 11.92416 23623 ft 402 kts 19°
2026-04-24 13:55 54.63100 11.94816 23031 ft 404 kts 27°
2026-04-24 13:55 54.65429 11.97490 22469 ft 400 kts 27°
2026-04-24 13:56 54.67735 12.00145 21919 ft 396 kts 27°
2026-04-24 13:56 54.70138 12.02333 21193 ft 388 kts 16°
2026-04-24 13:56 54.72622 12.04032 20107 ft 381 kts 16°
2026-04-24 13:56 54.75070 12.05681 19027 ft 374 kts 16°
2026-04-24 13:57 54.77476 12.07287 17922 ft 368 kts 17°
2026-04-24 13:57 54.79847 12.08868 16772 ft 362 kts 17°
2026-04-24 13:57 54.82197 12.10441 16028 ft 362 kts 17°
2026-04-24 13:57 54.84543 12.12020 15452 ft 361 kts 17°
2026-04-24 13:58 54.86876 12.13595 14932 ft 359 kts 17°
2026-04-24 13:58 54.89207 12.15055 14450 ft 353 kts 11°
2026-04-24 13:58 54.91587 12.15993 13996 ft 349 kts
2026-04-24 13:58 54.93951 12.16905 13477 ft 347 kts
2026-04-24 13:59 54.96299 12.17817 12947 ft 344 kts
2026-04-24 13:59 54.98629 12.18725 12436 ft 342 kts
2026-04-24 13:59 55.00935 12.19621 11934 ft 339 kts
2026-04-24 13:59 55.03228 12.20510 11426 ft 336 kts
2026-04-24 14:00 55.05501 12.21391 10932 ft 334 kts
2026-04-24 14:00 55.07760 12.22262 10457 ft 331 kts
2026-04-24 14:00 55.10004 12.23125 9981 ft 329 kts
2026-04-24 14:00 55.12227 12.23987 9463 ft 326 kts
2026-04-24 14:01 55.14432 12.24843 8951 ft 324 kts
2026-04-24 14:01 55.16615 12.25695 8441 ft 321 kts
2026-04-24 14:01 55.18793 12.26546 7943 ft 319 kts
2026-04-24 14:01 55.20956 12.27393 7443 ft 317 kts
2026-04-24 14:02 55.23100 12.28231 6961 ft 315 kts
2026-04-24 14:02 55.25215 12.29057 6651 ft 306 kts
2026-04-24 14:02 55.27214 12.29842 6393 ft 281 kts
2026-04-24 14:02 55.29042 12.30565 6124 ft 262 kts
2026-04-24 14:03 55.30814 12.31258 5853 ft 258 kts
2026-04-24 14:03 55.32538 12.31930 5622 ft 250 kts
2026-04-24 14:03 55.34212 12.32581 5398 ft 243 kts
2026-04-24 14:03 55.35841 12.33218 5167 ft 237 kts
2026-04-24 14:04 55.37428 12.33845 4938 ft 231 kts
2026-04-24 14:04 55.38982 12.34461 4709 ft 227 kts
2026-04-24 14:04 55.40509 12.35062 4473 ft 222 kts
2026-04-24 14:04 55.41996 12.35647 4317 ft 216 kts
2026-04-24 14:05 55.43412 12.36418 4146 ft 211 kts 21°
2026-04-24 14:05 55.44606 12.37910 3869 ft 210 kts 35°
2026-04-24 14:05 55.45699 12.39584 3585 ft 206 kts 35°
2026-04-24 14:05 55.46769 12.41222 3302 ft 202 kts 34°
2026-04-24 14:06 55.47819 12.42829 3027 ft 199 kts 34°
2026-04-24 14:06 55.48838 12.44392 2808 ft 189 kts 34°
2026-04-24 14:06 55.49807 12.45878 2533 ft 180 kts 34°
2026-04-24 14:06 55.50731 12.47295 2280 ft 173 kts 34°
2026-04-24 14:07 55.51626 12.48667 2050 ft 170 kts 34°
2026-04-24 14:07 55.52502 12.50013 1844 ft 163 kts 34°
2026-04-24 14:07 55.53346 12.51310 1607 ft 159 kts 33°
2026-04-24 14:07 55.54173 12.52579 1387 ft 156 kts 34°
2026-04-24 14:08 55.54964 12.53799 1182 ft 148 kts 34°
2026-04-24 14:08 55.55732 12.54979 980 ft 145 kts 34°
2026-04-24 14:08 55.56489 12.56134 794 ft 143 kts 35°
2026-04-24 14:08 55.57237 12.57265 545 ft 141 kts 36°
2026-04-24 14:09 55.57961 12.58386 355 ft 140 kts 38°
2026-04-24 14:09 55.58686 12.59517 177 ft 137 kts 38°
2026-04-24 14:09 55.59400 12.60627 49 ft 136 kts 38°
2026-04-24 14:09 55.60064 12.61648 28 ft 112 kts 41°
2026-04-24 14:10 55.60501 12.62329 25 ft 58 kts 41°
2026-04-24 14:10 55.60734 12.62689 26 ft 41 kts 41°
2026-04-24 14:10 55.60949 12.63022 26 ft 41 kts 41°
2026-04-24 14:10 55.61157 12.63344 28 ft 38 kts 41°
2026-04-24 14:11 55.61345 12.63636 30 ft 35 kts 41°
2026-04-24 14:11 55.61520 12.63906 28 ft 32 kts 41°
2026-04-24 14:11 55.61762 12.64080 26 ft 17 kts 356°
2026-04-24 14:12 55.61864 12.64076 24 ft 14 kts
2026-04-24 14:12 55.61954 12.64139 24 ft 14 kts 25°
2026-04-24 14:12 55.62077 12.64240 26 ft 25 kts 25°
2026-04-24 14:12 55.62185 12.64330 23 ft 13 kts 25°
2026-04-24 14:13 55.62282 12.64279 21 ft 18 kts 303°
2026-04-24 14:13 55.62352 12.64092 21 ft 19 kts 304°
2026-04-24 14:13 55.62438 12.63868 23 ft 23 kts 311°
2026-04-24 14:13 55.62569 12.63769 24 ft 20 kts 359°
2026-04-24 14:14 55.62682 12.63849 26 ft 18 kts 32°
2026-04-24 14:14 55.62779 12.63954 24 ft 12 kts 26°
2026-04-24 14:14 55.62871 12.63996 24 ft 2 kts 12°
2026-04-24 14:15 55.62878 12.63998 24 ft 0 kts 12°